Carmi, IL

7:59 AM CDT on March 25, 2017 (GMT -0500)
Carmi Municipal

Weather History for KCUL - February, 2014

Change the Weather History Date:

Thursday, February 20, 2014

  Actual Average (KEHR) Record (KEHR)
Temperature  
Mean Temperature 54 °F -  
Max Temperature 68 °F 48 °F 73 °F (1997)
Min Temperature 39 °F 30 °F -9 °F (2015)
Degree Days  
Heating Degree Days 10    
Growing Degree Days 4 (Base 50)    
Moisture  
Dew Point 48 °F    
Average Humidity 84    
Maximum Humidity 100    
Minimum Humidity 65    
Precipitation  
Precipitation 0.19 in - - ()
Sea Level Pressure  
Sea Level Pressure 29.67 in    
Wind  
Wind Speed 13 mph (South)    
Max Wind Speed 38 mph    
Max Gust Speed 59 mph    
Visibility 10 miles    
Events Rain , Thunderstorm    
Averages and records for this station are not official NWS values.
T = Trace of Precipitation, MM = Missing Value Source: NWS Daily Summary

Daily Weather History Graph

Daily Weather History Graph

Search for Another Location

Airport or City:

Trip Planner

Search our weather history database for the weather conditions in past years. The results will help you decide how hot, cold, wet, or windy it might be!

Date:

Astronomy

Feb. 20, 2014 Rise Set
Actual Time 6:36 AM CST 5:36 PM CST
Civil Twilight 6:09 AM CST 6:03 PM CST
Nautical Twilight 5:38 AM CST 6:34 PM CST
Astronomical Twilight 5:08 AM CST 7:04 PM CST
Moon 11:24 PM CST (2/20) 9:24 AM CST (2/20)
Length of Visible Light 11h 53m
Length of Day
11h 00m
Waning Gibbous, 70% of the Moon is Illuminated
Feb 20
Waning Gibbous
Feb 22
Last Quarter
Mar 1
New
Mar 8
First Quarter
Mar 16
Full

Hourly Weather History & Observations

Time (CST) Temp. Windchill Dew Point Humidity Pressure Visibility Wind Dir Wind Speed Gust Speed Precip Events Conditions
12:03 AM 44.6 °F 39.7 °F 37.4 °F 76% 29.87 in 10.0 mi ESE 9.2 mph - N/A   Overcast
12:15 AM 45.0 °F 40.1 °F 37.4 °F 75% 29.86 in 10.0 mi ESE 9.2 mph - N/A   Overcast
12:35 AM 45.3 °F 40.1 °F 37.4 °F 74% 29.85 in 10.0 mi ESE 10.4 mph - N/A Thunderstorm Overcast
12:42 AM 44.6 °F 40.7 °F 37.4 °F 76% 29.85 in 10.0 mi SE 6.9 mph - N/A Thunderstorm Mostly Cloudy
12:55 AM 45.0 °F 39.7 °F 37.4 °F 75% 29.85 in 10.0 mi SE 10.4 mph - N/A   Overcast
1:03 AM 44.6 °F 39.2 °F 37.4 °F 76% 29.84 in 10.0 mi SE 10.4 mph - N/A   Overcast
1:15 AM 44.4 °F 40.0 °F 37.6 °F 77% 29.84 in 10.0 mi SE 8.1 mph - N/A   Overcast
1:23 AM 44.6 °F 40.2 °F 37.4 °F 76% 29.83 in 10.0 mi SE 8.1 mph - N/A   Overcast
1:35 AM 43.7 °F 38.6 °F 37.8 °F 80% 29.82 in 10.0 mi SE 9.2 mph - N/A   Overcast
1:40 AM 44.6 °F 40.7 °F 37.4 °F 76% 29.82 in 10.0 mi SE 6.9 mph - N/A   Overcast
1:55 AM 43.7 °F 39.7 °F 37.9 °F 80% 29.82 in 10.0 mi SE 6.9 mph - N/A   Overcast
2:04 AM 44.6 °F 39.7 °F 37.4 °F 76% 29.81 in 10.0 mi SE 9.2 mph - N/A   Overcast
2:15 AM 44.6 °F 40.2 °F 38.3 °F 79% 29.81 in 10.0 mi SE 8.1 mph - N/A   Overcast
2:35 AM 44.6 °F 39.7 °F 38.3 °F 79% 29.80 in 10.0 mi SE 9.2 mph - N/A   Overcast
2:55 AM 44.1 °F 38.6 °F 38.3 °F 80% 29.78 in 10.0 mi SE 10.4 mph - N/A   Overcast
3:02 AM 44.6 °F 39.7 °F 37.4 °F 76% 29.77 in 10.0 mi SE 9.2 mph - N/A   Overcast
3:15 AM 43.7 °F 38.1 °F 38.5 °F 82% 29.76 in 10.0 mi SE 10.4 mph - N/A   Mostly Cloudy
3:35 AM 44.1 °F 38.6 °F 38.5 °F 81% 29.75 in 10.0 mi SE 10.4 mph - N/A   Scattered Clouds
3:40 AM 44.6 °F 39.7 °F 39.2 °F 81% 29.75 in 10.0 mi SE 9.2 mph - N/A   Scattered Clouds
3:55 AM 43.3 °F 38.6 °F 38.7 °F 84% 29.74 in 10.0 mi SE 8.1 mph - N/A   Scattered Clouds
4:15 AM 43.7 °F 38.6 °F 39.2 °F 84% 29.74 in 10.0 mi SE 9.2 mph - N/A   Mostly Cloudy
4:23 AM 44.6 °F 39.7 °F 39.2 °F 81% 29.74 in 10.0 mi SE 9.2 mph - N/A   Overcast
4:35 AM 44.1 °F 39.0 °F 40.1 °F 86% 29.72 in 10.0 mi SE 9.2 mph - N/A   Overcast
4:55 AM 44.6 °F 39.7 °F 40.6 °F 86% 29.72 in 10.0 mi SE 9.2 mph - N/A   Overcast
5:03 AM 44.6 °F 40.2 °F 41.0 °F 87% 29.72 in 10.0 mi SE 8.1 mph - N/A   Overcast
5:15 AM 44.1 °F 40.1 °F 41.0 °F 89% 29.72 in 10.0 mi SE 6.9 mph - N/A   Overcast
5:24 AM 44.6 °F 41.4 °F 41.0 °F 87% 29.72 in 10.0 mi SSE 5.8 mph - N/A   Overcast
5:35 AM 45.7 °F 40.6 °F 43.2 °F 91% 29.72 in 10.0 mi SSE 10.4 mph - N/A   Mostly Cloudy
5:43 AM 46.4 °F 41.9 °F 44.6 °F 93% 29.72 in 10.0 mi SSE 9.2 mph - N/A   Scattered Clouds
5:55 AM 47.7 °F - 44.6 °F 89% 29.71 in 10.0 mi SSE 10.4 mph - N/A   Scattered Clouds
6:00 AM 46.4 °F 42.4 °F 44.6 °F 93% 29.71 in 10.0 mi SSE 8.1 mph - N/A   Scattered Clouds
6:15 AM 47.1 °F - 45.3 °F 93% 29.70 in 10.0 mi SSE 10.4 mph - N/A   Clear
6:35 AM 47.1 °F - 45.5 °F 94% 29.70 in 10.0 mi SSE 10.4 mph - N/A   Scattered Clouds
6:43 AM 46.4 °F 42.4 °F 46.4 °F 100% 29.70 in 10.0 mi SSE 8.1 mph - N/A   Mostly Cloudy
6:55 AM 47.7 °F - 46.6 °F 96% 29.69 in 10.0 mi SSE 11.5 mph - N/A   Mostly Cloudy
7:03 AM 48.2 °F - 46.4 °F 93% 29.69 in 10.0 mi SSE 10.4 mph - N/A   Mostly Cloudy
7:15 AM 47.7 °F - 46.6 °F 96% 29.69 in 7.0 mi SSE 9.2 mph - N/A   Overcast
7:35 AM 49.1 °F - 48.0 °F 96% 29.69 in 7.0 mi SSE 10.4 mph - N/A   Overcast
7:55 AM 50.4 °F - 49.5 °F 97% 29.69 in 5.0 mi SSE 11.5 mph - N/A   Overcast
8:03 AM 51.8 °F - 50.0 °F 94% 29.69 in 5.0 mi SSE 10.4 mph - N/A   Overcast
8:15 AM 52.0 °F - 51.1 °F 97% 29.68 in 5.0 mi SSE 8.1 mph - N/A   Overcast
8:23 AM 53.6 °F - 51.8 °F 94% 29.68 in 5.0 mi SSE 10.4 mph - N/A   Overcast
8:35 AM 56.3 °F - 55.0 °F 96% 29.67 in 7.0 mi South 12.7 mph - N/A   Overcast
8:43 AM 55.4 °F - 53.6 °F 94% 29.67 in 7.0 mi South 11.5 mph - N/A   Overcast
9:00 AM 57.6 °F - 55.4 °F 92% 29.67 in 7.0 mi South 15.0 mph - N/A   Overcast
9:03 AM 57.2 °F - 55.4 °F 94% 29.67 in 10.0 mi South 15.0 mph - N/A   Overcast
9:15 AM 58.1 °F - 55.6 °F 91% 29.66 in 10.0 mi South 13.8 mph - N/A   Overcast
9:23 AM 59.0 °F - 55.4 °F 88% 29.66 in 10.0 mi South 15.0 mph - N/A   Overcast
9:35 AM 59.4 °F - 56.3 °F 90% 29.66 in 10.0 mi South 16.1 mph - N/A   Overcast
9:43 AM 59.0 °F - 55.4 °F 88% 29.65 in 10.0 mi South 16.1 mph - N/A   Overcast
9:55 AM 59.9 °F - 56.7 °F 89% 29.65 in 10.0 mi South 18.4 mph - N/A   Overcast
10:03 AM 60.8 °F - 57.2 °F 88% 29.64 in 10.0 mi South 17.3 mph 23.0 mph N/A   Overcast
10:15 AM 60.8 °F - 57.0 °F 87% 29.64 in 10.0 mi South 17.3 mph 24.2 mph N/A   Overcast
10:23 AM 60.8 °F - 57.2 °F 88% 29.64 in 10.0 mi South 18.4 mph 25.3 mph N/A   Overcast
10:35 AM 61.2 °F - 57.2 °F 87% 29.64 in 10.0 mi South 17.3 mph 25.3 mph N/A   Overcast
10:43 AM 62.6 °F - 57.2 °F 82% 29.64 in 10.0 mi South 18.4 mph 24.2 mph N/A   Overcast
10:55 AM 61.9 °F - 57.2 °F 85% 29.63 in 10.0 mi South 18.4 mph 27.6 mph N/A   Overcast
11:03 AM 62.6 °F - 57.2 °F 82% 29.63 in 10.0 mi South 25.3 mph 32.2 mph N/A   Overcast
11:23 AM 62.6 °F - 57.2 °F 82% 29.62 in 10.0 mi South 19.6 mph 29.9 mph N/A   Overcast
11:43 AM 62.6 °F - 59.0 °F 88% 29.61 in 10.0 mi South 20.7 mph 25.3 mph N/A   Overcast
12:02 PM 62.6 °F - 59.0 °F 88% 29.60 in 10.0 mi South 20.7 mph 29.9 mph N/A   Overcast
12:20 PM 62.6 °F - 59.0 °F 88% 29.58 in 10.0 mi South 20.7 mph 28.8 mph N/A   Overcast
12:45 PM 64.4 °F - 60.8 °F 88% 29.56 in 10.0 mi South 23.0 mph 27.6 mph N/A   Overcast
12:55 PM 63.7 °F - 59.9 °F 87% 29.56 in 10.0 mi South 21.9 mph 28.8 mph N/A   Overcast
1:00 PM 64.4 °F - 60.8 °F 88% 29.56 in 10.0 mi South 24.2 mph 28.8 mph N/A   Overcast
1:15 PM 63.7 °F - 59.9 °F 87% 29.55 in 10.0 mi South 25.3 mph - N/A   Overcast
1:38 PM 64.4 °F - 60.8 °F 88% 29.54 in 10.0 mi South 25.3 mph 29.9 mph N/A   Overcast
1:55 PM 63.5 °F - 60.8 °F 91% 29.53 in 10.0 mi South 21.9 mph 31.1 mph N/A   Overcast
2:14 PM 64.4 °F - 60.8 °F 88% 29.51 in 10.0 mi South 24.2 mph 29.9 mph N/A   Scattered Clouds
2:15 PM 64.2 °F - 60.8 °F 89% 29.51 in 10.0 mi South 25.3 mph 29.9 mph N/A   Scattered Clouds
2:24 PM 64.4 °F - 60.8 °F 88% 29.51 in 10.0 mi South 24.2 mph 29.9 mph N/A   Scattered Clouds
2:35 PM 65.1 °F - 60.8 °F 86% 29.50 in 10.0 mi South 19.6 mph 28.8 mph N/A   Scattered Clouds
2:41 PM 64.4 °F - 60.8 °F 88% 29.51 in 10.0 mi South 23.0 mph 29.9 mph N/A   Scattered Clouds
3:01 PM 66.2 °F - 60.8 °F 83% 29.50 in 10.0 mi South 25.3 mph 31.1 mph N/A   Mostly Cloudy
3:23 PM 66.2 °F - 60.8 °F 83% 29.50 in 10.0 mi South 23.0 mph 33.4 mph N/A   Mostly Cloudy
3:43 PM 68.0 °F - 60.8 °F 78% 29.50 in 10.0 mi South 23.0 mph 31.1 mph N/A Thunderstorm Overcast
4:01 PM 68.0 °F - 60.8 °F 78% 29.49 in 10.0 mi South 25.3 mph 33.4 mph N/A   Overcast
5:15 PM 67.3 °F - 60.3 °F 78% 29.46 in 10.0 mi South 27.6 mph 35.7 mph N/A   Scattered Clouds
5:35 PM 66.9 °F - 60.1 °F 79% 29.47 in 10.0 mi South 18.4 mph 33.4 mph N/A   Mostly Cloudy
5:55 PM 66.0 °F - 60.1 °F 81% 29.44 in 10.0 mi South 23.0 mph 27.6 mph N/A Thunderstorm Thunderstorm
6:15 PM 68.0 °F - 60.8 °F 78% 29.48 in 10.0 mi SSW 17.3 mph 29.9 mph N/A Thunderstorm Overcast
6:35 PM 67.1 °F - 61.3 °F 82% 29.52 in 5.0 mi West 29.9 mph 48.3 mph 0.03 in Rain , Thunderstorm Heavy Thunderstorms and Rain
6:38 PM 62.6 °F - 57.2 °F 82% 29.56 in 2.5 mi West 38.0 mph 58.7 mph 0.13 in Rain , Thunderstorm Heavy Thunderstorms and Rain
6:55 PM 54.5 °F - 52.7 °F 94% 29.56 in 7.0 mi West 20.7 mph 34.5 mph 0.19 in Rain , Thunderstorm Light Thunderstorms and Rain
7:15 PM 54.9 °F - 49.1 °F 81% 29.61 in 10.0 mi West 32.2 mph 40.3 mph N/A Rain Light Rain
7:35 PM 53.4 °F - 43.2 °F 68% 29.64 in 10.0 mi West 31.1 mph 41.4 mph N/A   Overcast
7:55 PM 49.3 °F - 38.1 °F 65% 29.66 in 10.0 mi West 35.7 mph 43.7 mph N/A   Mostly Cloudy
8:15 PM 47.3 °F - 37.6 °F 69% 29.67 in 10.0 mi West 26.5 mph 43.7 mph N/A   Clear
8:35 PM 46.4 °F 38.1 °F 36.7 °F 69% 29.70 in 10.0 mi West 24.2 mph 38.0 mph N/A   Clear
8:55 PM 45.7 °F 37.4 °F 36.1 °F 69% 29.71 in 10.0 mi West 23.0 mph 33.4 mph N/A   Mostly Cloudy
9:15 PM 45.1 °F 35.8 °F 35.1 °F 68% 29.72 in 10.0 mi West 27.6 mph 39.1 mph N/A   Scattered Clouds
9:35 PM 44.2 °F 36.7 °F 35.2 °F 71% 29.73 in 10.0 mi West 17.3 mph 28.8 mph N/A   Mostly Cloudy
9:55 PM 43.7 °F 35.2 °F 34.7 °F 71% 29.74 in 10.0 mi West 20.7 mph 28.8 mph N/A   Scattered Clouds
10:15 PM 42.8 °F 35.1 °F 34.3 °F 72% 29.74 in 10.0 mi West 16.1 mph 23.0 mph N/A   Clear
10:35 PM 41.9 °F 35.0 °F 34.0 °F 73% 29.74 in 10.0 mi West 12.7 mph 19.6 mph N/A   Clear
10:55 PM 41.2 °F 34.5 °F 33.6 °F 74% 29.76 in 10.0 mi WSW 11.5 mph 16.1 mph N/A   Clear
11:15 PM 41.0 °F 35.2 °F 32.5 °F 72% 29.76 in 10.0 mi WSW 9.2 mph - N/A   Clear
11:35 PM 39.4 °F 35.2 °F 32.2 °F 75% 29.77 in 10.0 mi SW 5.8 mph - N/A   Clear